| time (UTC) | temp F | wind direction | speed MPH | gust MPH | rain 1hr in | rain 24hr in | rain mn in | humidity % | barometer mb |
| 20260508153026 | 73 | 239 | 0.0 | 2.0 | 0.00 | 0.18 | 0.00 | 51 | 1013.1 |
| 20260508152517 | 73 | 239 | 0.0 | 2.0 | 0.00 | 0.18 | 0.00 | 53 | 1013.1 |
| 20260508152017 | 72 | 239 | 0.0 | 4.0 | 0.00 | 0.18 | 0.00 | 52 | 1013.1 |
| 20260508151526 | 72 | 239 | 1.0 | 4.0 | 0.00 | 0.18 | 0.00 | 51 | 1013.1 |
| 20260508151024 | 72 | 236 | 0.0 | 3.0 | 0.00 | 0.18 | 0.00 | 49 | 1013.1 |
| 20260508150516 | 72 | 236 | 0.0 | 2.0 | 0.00 | 0.18 | 0.00 | 52 | 1013.1 |
| 20260508150016 | 72 | 236 | 0.0 | 4.0 | 0.00 | 0.18 | 0.00 | 51 | 1013.1 |
| 20260508145516 | 73 | 246 | 1.0 | 4.0 | 0.00 | 0.35 | 0.00 | 49 | 1013.2 |
| 20260508145015 | 74 | 229 | 0.0 | 3.0 | 0.00 | 0.35 | 0.00 | 53 | 1013.2 |
| 20260508144515 | 74 | 15 | 0.0 | 2.0 | 0.00 | 0.35 | 0.00 | 50 | 1013.3 |
| 20260508144015 | 74 | 15 | 0.0 | 2.0 | 0.00 | 0.35 | 0.00 | 49 | 1013.3 |
| 20260508143514 | 74 | 15 | 0.0 | 2.0 | 0.00 | 0.35 | 0.00 | 44 | 1013.3 |
| 20260508143014 | 74 | 287 | 0.0 | 2.0 | 0.00 | 0.35 | 0.00 | 48 | 1013.4 |
| 20260508142513 | 74 | 287 | 0.0 | 2.0 | 0.00 | 0.35 | 0.00 | 46 | 1013.4 |
| 20260508142013 | 73 | 287 | 0.0 | 2.0 | 0.00 | 0.35 | 0.00 | 49 | 1013.5 |
| 20260508141513 | 74 | 286 | 0.0 | 2.0 | 0.00 | 0.35 | 0.00 | 47 | 1013.6 |
| 20260508141011 | 74 | 287 | 0.0 | 2.0 | 0.00 | 0.35 | 0.00 | 47 | 1013.6 |
| 20260508140517 | 74 | 284 | 0.0 | 2.0 | 0.00 | 0.35 | 0.00 | 46 | 1013.6 |
| 20260508140010 | 73 | 284 | 0.0 | 3.0 | 0.00 | 0.35 | 0.00 | 46 | 1013.6 |
| 20260508135512 | 73 | 281 | 0.0 | 3.0 | 0.00 | 0.35 | 0.00 | 50 | 1013.7 |
| 20260508135013 | 73 | 292 | 0.0 | 3.0 | 0.00 | 0.35 | 0.00 | 51 | 1013.7 |
| 20260508134508 | 73 | 265 | 0.0 | 4.0 | 0.00 | 0.35 | 0.00 | 52 | 1013.8 |
| 20260508134008 | 73 | 279 | 1.0 | 4.0 | 0.00 | 0.35 | 0.00 | 48 | 1013.9 |
| 20260508133511 | 73 | 141 | 0.0 | 4.0 | 0.00 | 0.35 | 0.00 | 50 | 1014.0 |
| 20260508133007 | 72 | 240 | 0.0 | 4.0 | 0.00 | 0.35 | 0.00 | 53 | 1014.1 |
| 20260508132506 | 72 | 244 | 1.0 | 4.0 | 0.00 | 0.35 | 0.00 | 54 | 1014.1 |
| 20260508132005 | 72 | 290 | 1.0 | 4.0 | 0.00 | 0.35 | 0.00 | 54 | 1014.1 |
| 20260508131507 | 72 | 234 | 1.0 | 4.0 | 0.00 | 0.35 | 0.00 | 56 | 1014.1 |
| 20260508131004 | 72 | 210 | 1.0 | 4.0 | 0.00 | 0.35 | 0.00 | 60 | 1014.3 |
| 20260508130503 | 71 | 228 | 2.0 | 6.0 | 0.00 | 0.35 | 0.00 | 55 | 1014.3 |
| 20260508130002 | 73 | 224 | 0.0 | 2.0 | 0.00 | 0.35 | 0.00 | 56 | 1014.3 |
| 20260508125504 | 73 | 74 | 0.0 | 3.0 | 0.00 | 0.35 | 0.00 | 58 | 1014.4 |
| 20260508125002 | 72 | 79 | 0.0 | 3.0 | 0.00 | 0.35 | 0.00 | 56 | 1014.3 |
| 20260508124502 | 71 | 283 | 0.0 | 4.0 | 0.00 | 0.35 | 0.00 | 59 | 1014.4 |
| 20260508124002 | 72 | 260 | 1.0 | 4.0 | 0.00 | 0.35 | 0.00 | 55 | 1014.4 |
| 20260508123502 | 72 | 233 | 0.0 | 3.0 | 0.00 | 0.35 | 0.00 | 58 | 1014.5 |
| 20260508123000 | 73 | 232 | 0.0 | 5.0 | 0.00 | 0.35 | 0.00 | 58 | 1014.5 |
| 20260508122600 | 72 | 284 | 1.0 | 5.0 | 0.00 | 0.35 | 0.00 | 55 | 1014.6 |
| 20260508122100 | 73 | 142 | 0.0 | 2.0 | 0.00 | 0.35 | 0.00 | 55 | 1014.6 |
| 20260508121559 | 72 | 259 | 0.0 | 3.0 | 0.00 | 0.35 | 0.00 | 56 | 1014.6 |
| 20260508121058 | 71 | 259 | 1.0 | 3.0 | 0.00 | 0.35 | 0.00 | 57 | 1014.6 |
| 20260508120557 | 70 | 236 | 0.0 | 6.0 | 0.00 | 0.35 | 0.00 | 63 | 1014.7 |
| 20260508120058 | 70 | 241 | 2.0 | 6.0 | 0.00 | 0.35 | 0.00 | 59 | 1014.7 |
| 20260508115558 | 71 | 248 | 3.0 | 5.0 | 0.00 | 0.35 | 0.00 | 61 | 1014.7 |
| 20260508115059 | 71 | 235 | 0.0 | 3.0 | 0.00 | 0.35 | 0.00 | 64 | 1014.7 |
| 20260508114557 | 71 | 229 | 0.0 | 4.0 | 0.00 | 0.35 | 0.00 | 58 | 1014.7 |
| 20260508114057 | 71 | 55 | 1.0 | 4.0 | 0.00 | 0.35 | 0.00 | 61 | 1014.8 |
| 20260508113557 | 71 | 329 | 0.0 | 3.0 | 0.00 | 0.35 | 0.00 | 56 | 1014.8 |
| 20260508113058 | 70 | 314 | 0.0 | 3.0 | 0.00 | 0.35 | 0.00 | 59 | 1014.9 |
| 20260508112555 | 69 | 240 | 0.0 | 3.0 | 0.00 | 0.35 | 0.00 | 62 | 1014.9 |
| 20260508112055 | 70 | 275 | 1.0 | 4.0 | 0.00 | 0.35 | 0.00 | 66 | 1014.9 |
| 20260508111556 | 69 | 225 | 2.0 | 7.0 | 0.00 | 0.35 | 0.00 | 66 | 1015.0 |
| 20260508111055 | 71 | 241 | 3.0 | 7.0 | 0.00 | 0.35 | 0.00 | 62 | 1014.9 |
| 20260508110555 | 69 | 300 | 1.0 | 4.0 | 0.00 | 0.35 | 0.00 | 62 | 1014.9 |
| 20260508110113 | 69 | 281 | 0.0 | 4.0 | 0.00 | 0.35 | 0.00 | 65 | 1015.0 |
| 20260508105554 | 70 | 285 | 0.0 | 4.0 | 0.00 | 0.35 | 0.00 | 61 | 1015.1 |
| 20260508105054 | 71 | 285 | 0.0 | 4.0 | 0.00 | 0.35 | 0.00 | 65 | 1015.1 |
| 20260508104557 | 71 | 123 | 0.0 | 2.0 | 0.00 | 0.35 | 0.00 | 64 | 1015.1 |
| 20260508104053 | 70 | 48 | 0.0 | 3.0 | 0.00 | 0.35 | 0.00 | 61 | 1015.2 |
| 20260508103553 | 70 | 46 | 0.0 | 3.0 | 0.00 | 0.35 | 0.00 | 64 | 1015.2 |
| 20260508103054 | 71 | 56 | 0.0 | 4.0 | 0.00 | 0.35 | 0.00 | 64 | 1015.3 |
| 20260508102551 | 69 | 59 | 1.0 | 4.0 | 0.00 | 0.35 | 0.00 | 67 | 1015.3 |
| 20260508102054 | 68 | 76 | 0.0 | 3.0 | 0.00 | 0.35 | 0.00 | 64 | 1015.3 |
| 20260508101555 | 69 | 64 | 1.0 | 3.0 | 0.00 | 0.35 | 0.00 | 67 | 1015.4 |
| 20260508101051 | 69 | 32 | 0.0 | 2.0 | 0.00 | 0.35 | 0.00 | 63 | 1015.4 |
| 20260508100551 | 69 | 31 | 0.0 | 2.0 | 0.00 | 0.35 | 0.00 | 65 | 1015.5 |
| 20260508100050 | 70 | 350 | 0.0 | 2.0 | 0.00 | 0.35 | 0.00 | 66 | 1015.5 |
| 20260508095553 | 69 | 350 | 1.0 | 2.0 | 0.00 | 0.35 | 0.00 | 68 | 1015.5 |
| 20260508095052 | 69 | 72 | 0.0 | 4.0 | 0.00 | 0.35 | 0.00 | 68 | 1015.5 |
| 20260508094554 | 69 | 72 | 1.0 | 4.0 | 0.00 | 0.35 | 0.00 | 68 | 1015.6 |
| 20260508094048 | 67 | 283 | 0.0 | 2.0 | 0.00 | 0.35 | 0.00 | 71 | 1015.7 |
| 20260508093603 | 66 | 283 | 0.0 | 3.0 | 0.00 | 0.35 | 0.00 | 70 | 1015.6 |
| 20260508093056 | 67 | 283 | 1.0 | 3.0 | 0.00 | 0.35 | 0.00 | 67 | 1015.6 |
| 20260508092547 | 67 | 65 | 0.0 | 3.0 | 0.00 | 0.35 | 0.00 | 69 | 1015.7 |
| 20260508092045 | 68 | 65 | 0.0 | 3.0 | 0.00 | 0.35 | 0.00 | 64 | 1015.7 |
| 20260508091546 | 69 | 77 | 0.0 | 2.0 | 0.00 | 0.35 | 0.00 | 66 | 1015.7 |
| 20260508091045 | 69 | 76 | 0.0 | 2.0 | 0.00 | 0.35 | 0.00 | 67 | 1015.7 |
| 20260508090544 | 67 | 76 | 0.0 | 2.0 | 0.00 | 0.35 | 0.00 | 70 | 1015.8 |
| 20260508090103 | 66 | 64 | 0.0 | 3.0 | 0.00 | 0.35 | 0.00 | 70 | 1015.8 |
| 20260508085541 | 66 | 63 | 1.0 | 3.0 | 0.00 | 0.35 | 0.00 | 72 | 1015.8 |
| 20260508085041 | 66 | 59 | 1.0 | 2.0 | 0.00 | 0.35 | 0.00 | 71 | 1015.8 |
| 20260508084541 | 66 | 263 | 0.0 | 2.0 | 0.00 | 0.35 | 0.00 | 68 | 1015.7 |
| 20260508084043 | 66 | 346 | 0.0 | 2.0 | 0.00 | 0.35 | 0.00 | 72 | 1015.7 |
| 20260508083543 | 66 | 346 | 0.0 | 2.0 | 0.00 | 0.35 | 0.00 | 73 | 1015.7 |
| 20260508083039 | 65 | 348 | 0.0 | 3.0 | 0.00 | 0.35 | 0.00 | 72 | 1015.7 |
| 20260508082540 | 66 | 289 | 1.0 | 3.0 | 0.00 | 0.35 | 0.00 | 69 | 1015.7 |
| 20260508082040 | 66 | 61 | 0.0 | 2.0 | 0.00 | 0.35 | 0.00 | 70 | 1015.7 |
| 20260508081537 | 65 | 60 | 0.0 | 2.0 | 0.00 | 0.35 | 0.00 | 73 | 1015.7 |
| 20260508081035 | 65 | 315 | 0.0 | 2.0 | 0.00 | 0.35 | 0.00 | 74 | 1015.7 |
| 20260508080536 | 65 | 315 | 0.0 | 2.0 | 0.00 | 0.35 | 0.00 | 73 | 1015.7 |
| 20260508080040 | 64 | 38 | 0.0 | 2.0 | 0.00 | 0.35 | 0.00 | 73 | 1015.8 |
| 20260508075534 | 64 | 38 | 0.0 | 2.0 | 0.00 | 0.35 | 0.00 | 73 | 1015.8 |
| 20260508075037 | 64 | 38 | 0.0 | 2.0 | 0.00 | 0.35 | 0.00 | 73 | 1015.8 |
| 20260508074539 | 64 | 38 | 0.0 | 2.0 | 0.00 | 0.35 | 0.00 | 73 | 1015.8 |
| 20260508074031 | 64 | 36 | 0.0 | 2.0 | 0.00 | 0.35 | 0.00 | 74 | 1015.8 |
| 20260508073531 | 63 | 36 | 0.0 | 3.0 | 0.00 | 0.35 | 0.00 | 74 | 1015.8 |
| 20260508073031 | 63 | 36 | 0.0 | 3.0 | 0.00 | 0.35 | 0.00 | 73 | 1015.7 |
| 20260508072528 | 63 | 52 | 0.0 | 2.0 | 0.00 | 0.35 | 0.00 | 75 | 1015.8 |
| 20260508072027 | 62 | 52 | 0.0 | 2.0 | 0.00 | 0.35 | 0.00 | 74 | 1015.8 |
| 20260508071528 | 62 | 52 | 0.0 | 2.0 | 0.00 | 0.35 | 0.00 | 75 | 1015.8 |
| 20260508071026 | 62 | 52 | 0.0 | 2.0 | 0.00 | 0.35 | 0.00 | 74 | 1015.8 |
| 20260508070523 | 61 | 53 | 0.0 | 3.0 | 0.00 | 0.35 | 0.00 | 75 | 1015.8 |
| 20260508070024 | 61 | 57 | 1.0 | 3.0 | 0.00 | 0.35 | 0.00 | 75 | 1015.8 |
| 20260508065520 | 60 | 55 | 0.0 | 3.0 | 0.00 | 0.35 | 0.00 | 76 | 1015.7 |
| 20260508065019 | 60 | 54 | 1.0 | 2.0 | 0.00 | 0.35 | 0.00 | 75 | 1015.7 |
| 20260508064521 | 59 | 27 | 0.0 | 2.0 | 0.00 | 0.35 | 0.00 | 77 | 1015.7 |
| 20260508064018 | 59 | 27 | 0.0 | 2.0 | 0.00 | 0.35 | 0.00 | 76 | 1015.7 |
| 20260508063521 | 59 | 27 | 1.0 | 3.0 | 0.00 | 0.35 | 0.00 | 76 | 1015.6 |
| 20260508063019 | 59 | 27 | 1.0 | 4.0 | 0.00 | 0.35 | 0.00 | 74 | 1015.6 |
| 20260508062517 | 59 | 22 | 1.0 | 4.0 | 0.00 | 0.35 | 0.00 | 74 | 1015.7 |
| 20260508062017 | 59 | 48 | 1.0 | 4.0 | 0.00 | 0.35 | 0.00 | 75 | 1015.5 |
| 20260508061516 | 59 | 36 | 0.0 | 4.0 | 0.00 | 0.35 | 0.00 | 76 | 1015.5 |
| 20260508061015 | 58 | 36 | 2.0 | 4.0 | 0.00 | 0.35 | 0.00 | 76 | 1015.6 |
| 20260508060517 | 58 | 34 | 2.0 | 4.0 | 0.00 | 0.35 | 0.00 | 76 | 1015.6 |
| 20260508060013 | 58 | 37 | 2.0 | 4.0 | 0.00 | 0.35 | 0.00 | 77 | 1015.5 |
| 20260508055511 | 57 | 31 | 2.0 | 4.0 | 0.00 | 0.35 | 0.00 | 77 | 1015.4 |
| 20260508055016 | 57 | 50 | 1.0 | 4.0 | 0.00 | 0.35 | 0.00 | 79 | 1015.3 |
| 20260508054509 | 57 | 38 | 1.0 | 3.0 | 0.00 | 0.35 | 0.00 | 80 | 1015.3 |
| 20260508054010 | 56 | 42 | 1.0 | 3.0 | 0.00 | 0.35 | 0.00 | 80 | 1015.2 |
| 20260508053506 | 56 | 45 | 1.0 | 4.0 | 0.00 | 0.35 | 0.00 | 81 | 1015.2 |
| 20260508053005 | 55 | 46 | 2.0 | 4.0 | 0.00 | 0.35 | 0.00 | 80 | 1015.1 |
| 20260508052503 | 55 | 27 | 1.0 | 4.0 | 0.00 | 0.35 | 0.00 | 81 | 1015.2 |
| 20260508052002 | 55 | 49 | 1.0 | 4.0 | 0.00 | 0.35 | 0.00 | 82 | 1015.1 |
| 20260508051600 | 54 | 36 | 2.0 | 3.0 | 0.00 | 0.35 | 0.00 | 83 | 1015.2 |
| 20260508051100 | 54 | 34 | 0.0 | 2.0 | 0.00 | 0.35 | 0.00 | 83 | 1015.2 |
| 20260508050559 | 54 | 34 | 0.0 | 2.0 | 0.00 | 0.35 | 0.00 | 83 | 1015.2 |
| 20260508050057 | 53 | 34 | 0.0 | 2.0 | 0.00 | 0.35 | 0.00 | 84 | 1015.2 |
| 20260508045557 | 53 | 34 | 0.0 | 2.0 | 0.00 | 0.35 | 0.00 | 85 | 1015.2 |
| 20260508045055 | 52 | 34 | 0.0 | 2.0 | 0.00 | 0.35 | 0.00 | 85 | 1015.1 |
| 20260508044601 | 52 | 34 | 0.0 | 3.0 | 0.00 | 0.35 | 0.00 | 85 | 1015.0 |
| 20260508044052 | 52 | 34 | 0.0 | 3.0 | 0.00 | 0.35 | 0.00 | 85 | 1015.0 |
| 20260508043552 | 52 | 29 | 1.0 | 3.0 | 0.00 | 0.35 | 0.00 | 86 | 1014.9 |
| 20260508043051 | 52 | 29 | 2.0 | 3.0 | 0.00 | 0.35 | 0.00 | 86 | 1014.9 |
| 20260508042551 | 52 | 29 | 1.0 | 3.0 | 0.00 | 0.35 | 0.00 | 86 | 1014.9 |
| 20260508042050 | 51 | 29 | 2.0 | 4.0 | 0.00 | 0.35 | 0.00 | 86 | 1014.8 |
| 20260508041556 | 51 | 32 | 2.0 | 4.0 | 0.00 | 0.35 | 0.00 | 86 | 1014.8 |
| 20260508041050 | 51 | 33 | 2.0 | 4.0 | 0.00 | 0.35 | 0.00 | 87 | 1014.8 |
| 20260508040549 | 51 | 40 | 2.0 | 3.0 | 0.00 | 0.35 | 0.00 | 87 | 1014.7 |
| 20260508040053 | 51 | 42 | 1.0 | 3.0 | 0.00 | 0.35 | 0.00 | 86 | 1014.7 |
| 20260508035546 | 51 | 42 | 0.0 | 2.0 | 0.00 | 0.35 | 0.00 | 86 | 1014.8 |
| 20260508035046 | 52 | 42 | 0.0 | 2.0 | 0.00 | 0.35 | 0.00 | 86 | 1014.8 |
| 20260508034545 | 52 | 42 | 0.0 | 2.0 | 0.00 | 0.35 | 0.00 | 86 | 1014.9 |
| 20260508034045 | 52 | 42 | 0.0 | 2.0 | 0.00 | 0.35 | 0.00 | 86 | 1014.9 |
| 20260508033543 | 52 | 42 | 0.0 | 2.0 | 0.00 | 0.35 | 0.00 | 85 | 1015.0 |
| 20260508033043 | 52 | 42 | 0.0 | 2.0 | 0.00 | 0.35 | 0.00 | 85 | 1015.0 |
| 20260508032546 | 52 | 42 | 0.0 | 2.0 | 0.00 | 0.35 | 0.00 | 85 | 1014.9 |
| 20260508032042 | 52 | 42 | 0.0 | 2.0 | 0.00 | 0.35 | 0.00 | 85 | 1014.9 |
| 20260508031554 | 52 | 42 | 0.0 | 3.0 | 0.00 | 0.35 | 0.00 | 85 | 1015.0 |
| 20260508031044 | 53 | 42 | 0.0 | 3.0 | 0.00 | 0.35 | 0.00 | 85 | 1015.0 |
| 20260508030541 | 53 | 42 | 1.0 | 3.0 | 0.00 | 0.35 | 0.00 | 85 | 1015.0 |
| 20260508030051 | 53 | 42 | 1.0 | 3.0 | 0.00 | 0.35 | 0.00 | 85 | 1015.0 |
| 20260508025539 | 53 | 42 | 0.0 | 3.0 | 0.00 | 0.35 | 0.00 | 86 | 1015.0 |
| 20260508025039 | 53 | 42 | 1.0 | 3.0 | 0.00 | 0.35 | 0.00 | 85 | 1015.0 |
| 20260508024540 | 53 | 42 | 1.0 | 3.0 | 0.00 | 0.35 | 0.00 | 85 | 1015.1 |
| 20260508024039 | 53 | 43 | 0.0 | 2.0 | 0.00 | 0.35 | 0.00 | 85 | 1015.1 |
| 20260508023541 | 53 | 43 | 0.0 | 2.0 | 0.00 | 0.35 | 0.00 | 85 | 1015.1 |
| 20260508023043 | 53 | 43 | 1.0 | 2.0 | 0.00 | 0.35 | 0.00 | 85 | 1015.2 |
| 20260508022537 | 53 | 43 | 1.0 | 2.0 | 0.00 | 0.35 | 0.00 | 86 | 1015.2 |
| 20260508022037 | 53 | 43 | 0.0 | 2.0 | 0.00 | 0.35 | 0.00 | 86 | 1015.2 |
| 20260508021537 | 53 | 43 | 0.0 | 2.0 | 0.00 | 0.35 | 0.00 | 86 | 1015.3 |
| 20260508021036 | 53 | 43 | 0.0 | 2.0 | 0.00 | 0.35 | 0.00 | 86 | 1015.3 |
| 20260508020536 | 53 | 43 | 0.0 | 2.0 | 0.00 | 0.35 | 0.00 | 86 | 1015.3 |
| 20260508020036 | 53 | 43 | 0.0 | 2.0 | 0.00 | 0.35 | 0.00 | 86 | 1015.4 |
| 20260508015536 | 53 | 43 | 0.0 | 2.0 | 0.00 | 0.35 | 0.00 | 86 | 1015.4 |
| 20260508015036 | 53 | 43 | 0.0 | 1.0 | 0.00 | 0.35 | 0.00 | 86 | 1015.3 |
| 20260508014536 | 53 | 43 | 0.0 | 2.0 | 0.00 | 0.35 | 0.00 | 86 | 1015.3 |
| 20260508014037 | 53 | 43 | 0.0 | 2.0 | 0.00 | 0.35 | 0.00 | 85 | 1015.3 |
| 20260508013535 | 53 | 43 | 0.0 | 2.0 | 0.00 | 0.35 | 0.00 | 85 | 1015.3 |
| 20260508013036 | 53 | 43 | 0.0 | 2.0 | 0.00 | 0.35 | 0.00 | 85 | 1015.3 |
| 20260508012536 | 53 | 43 | 0.0 | 2.0 | 0.00 | 0.35 | 0.00 | 85 | 1015.3 |
| 20260508012034 | 53 | 43 | 0.0 | 2.0 | 0.00 | 0.35 | 0.00 | 85 | 1015.3 |
| 20260508011534 | 54 | 43 | 0.0 | 2.0 | 0.00 | 0.35 | 0.00 | 85 | 1015.2 |
| 20260508011032 | 54 | 43 | 0.0 | 2.0 | 0.00 | 0.35 | 0.00 | 85 | 1015.3 |
| 20260508010533 | 54 | 43 | 0.0 | 2.0 | 0.00 | 0.35 | 0.00 | 85 | 1015.3 |
| 20260508010040 | 54 | 43 | 0.0 | 2.0 | 0.00 | 0.35 | 0.00 | 85 | 1015.2 |
| 20260508005532 | 54 | 43 | 0.0 | 2.0 | 0.00 | 0.35 | 0.00 | 85 | 1015.2 |
| 20260508005033 | 54 | 43 | 0.0 | 2.0 | 0.00 | 0.35 | 0.00 | 84 | 1015.1 |
| 20260508004533 | 54 | 27 | 0.0 | 2.0 | 0.00 | 0.35 | 0.00 | 84 | 1015.1 |
| 20260508004032 | 54 | 27 | 0.0 | 2.0 | 0.00 | 0.35 | 0.00 | 84 | 1015.2 |
| 20260508003535 | 54 | 27 | 0.0 | 2.0 | 0.00 | 0.35 | 0.00 | 85 | 1015.1 |
| 20260508003031 | 54 | 27 | 0.0 | 2.0 | 0.00 | 0.35 | 0.00 | 85 | 1015.2 |
| 20260508002534 | 54 | 27 | 1.0 | 2.0 | 0.00 | 0.35 | 0.00 | 85 | 1015.2 |
| 20260508002031 | 54 | 27 | 0.0 | 2.0 | 0.00 | 0.35 | 0.00 | 85 | 1015.2 |
| 20260508001535 | 54 | 27 | 0.0 | 3.0 | 0.00 | 0.35 | 0.00 | 85 | 1015.3 |
| 20260508001030 | 54 | 27 | 0.0 | 4.0 | 0.00 | 0.35 | 0.00 | 85 | 1015.3 |
| 20260508000531 | 54 | 27 | 2.0 | 4.0 | 0.00 | 0.35 | 0.00 | 85 | 1015.2 |
| 20260508000033 | 54 | 32 | 2.0 | 4.0 | 0.00 | 0.35 | 0.00 | 85 | 1015.2 |
| 20260507235529 | 54 | 34 | 2.0 | 4.0 | 0.00 | 0.35 | 0.00 | 85 | 1015.1 |
| 20260507235029 | 54 | 35 | 1.0 | 3.0 | 0.00 | 0.35 | 0.00 | 85 | 1015.3 |
| 20260507234535 | 54 | 35 | 0.0 | 2.0 | 0.00 | 0.35 | 0.00 | 85 | 1015.4 |
| 20260507234028 | 54 | 35 | 0.0 | 2.0 | 0.00 | 0.35 | 0.00 | 85 | 1015.4 |
| 20260507233529 | 54 | 35 | 0.0 | 2.0 | 0.00 | 0.35 | 0.00 | 85 | 1015.6 |
| 20260507233029 | 54 | 35 | 1.0 | 2.0 | 0.00 | 0.35 | 0.00 | 85 | 1015.6 |
| 20260507232531 | 54 | 35 | 0.0 | 3.0 | 0.00 | 0.35 | 0.00 | 85 | 1015.6 |
| 20260507232028 | 55 | 35 | 1.0 | 3.0 | 0.00 | 0.35 | 0.00 | 85 | 1015.6 |
| 20260507231527 | 55 | 35 | 1.0 | 3.0 | 0.00 | 0.35 | 0.00 | 85 | 1015.6 |
| 20260507231028 | 54 | 35 | 1.0 | 3.0 | 0.00 | 0.35 | 0.00 | 85 | 1015.6 |
| 20260507230548 | 54 | 36 | 1.0 | 3.0 | 0.00 | 0.35 | 0.00 | 85 | 1015.6 |
| 20260507230026 | 54 | 36 | 0.0 | 2.0 | 0.00 | 0.35 | 0.00 | 86 | 1015.6 |
| 20260507225525 | 54 | 36 | 0.0 | 2.0 | 0.00 | 0.35 | 0.00 | 86 | 1015.6 |
| 20260507225025 | 54 | 36 | 0.0 | 2.0 | 0.00 | 0.35 | 0.00 | 85 | 1015.4 |
| 20260507224541 | 54 | 36 | 0.0 | 2.0 | 0.00 | 0.35 | 0.00 | 85 | 1015.4 |
| 20260507224025 | 54 | 36 | 0.0 | 3.0 | 0.00 | 0.35 | 0.00 | 85 | 1015.4 |
| 20260507223524 | 54 | 36 | 1.0 | 3.0 | 0.00 | 0.35 | 0.00 | 85 | 1015.4 |
| 20260507223024 | 54 | 36 | 0.0 | 2.0 | 0.00 | 0.35 | 0.00 | 85 | 1015.4 |
| 20260507222523 | 54 | 36 | 0.0 | 2.0 | 0.00 | 0.35 | 0.00 | 86 | 1015.3 |
| 20260507222022 | 54 | 36 | 0.0 | 2.0 | 0.00 | 0.35 | 0.00 | 86 | 1015.3 |
| 20260507221530 | 54 | 36 | 0.0 | 2.0 | 0.00 | 0.35 | 0.00 | 86 | 1015.4 |
| 20260507221022 | 54 | 36 | 0.0 | 2.0 | 0.00 | 0.35 | 0.00 | 86 | 1015.4 |
| 20260507220520 | 54 | 36 | 0.0 | 2.0 | 0.00 | 0.35 | 0.00 | 86 | 1015.3 |
| 20260507220021 | 54 | 36 | 0.0 | 2.0 | 0.00 | 0.35 | 0.00 | 87 | 1015.4 |
| 20260507215520 | 54 | 36 | 0.0 | 2.0 | 0.00 | 0.35 | 0.35 | 87 | 1015.5 |
| 20260507215019 | 54 | 36 | 0.0 | 0.0 | 0.00 | 0.35 | 0.35 | 87 | 1015.4 |
| 20260507214521 | 53 | 36 | 0.0 | 0.0 | 0.00 | 0.35 | 0.35 | 87 | 1015.4 |
| 20260507214018 | 53 | 36 | 0.0 | 1.0 | 0.00 | 0.35 | 0.35 | 87 | 1015.3 |
| 20260507213518 | 53 | 36 | 0.0 | 2.0 | 0.00 | 0.35 | 0.35 | 87 | 1015.3 |
| 20260507213028 | 53 | 36 | 0.0 | 1.0 | 0.00 | 0.35 | 0.35 | 87 | 1015.1 |
| 20260507212516 | 53 | 36 | 0.0 | 1.0 | 0.00 | 0.35 | 0.35 | 87 | 1015.2 |
| 20260507212017 | 54 | 36 | 0.0 | 0.0 | 0.00 | 0.35 | 0.35 | 87 | 1015.2 |
| 20260507211515 | 54 | 36 | 0.0 | 0.0 | 0.00 | 0.35 | 0.35 | 87 | 1015.2 |
| 20260507211014 | 54 | 36 | 0.0 | 0.0 | 0.00 | 0.35 | 0.35 | 87 | 1015.1 |
| 20260507210513 | 54 | 36 | 0.0 | 0.0 | 0.00 | 0.35 | 0.35 | 87 | 1015.1 |
| 20260507210030 | 54 | 36 | 0.0 | 0.0 | 0.00 | 0.35 | 0.35 | 88 | 1015.1 |
| 20260507205514 | 54 | 36 | 0.0 | 0.0 | 0.00 | 0.35 | 0.35 | 88 | 1015.0 |
| 20260507205014 | 54 | 36 | 0.0 | 1.0 | 0.00 | 0.35 | 0.35 | 89 | 1014.9 |
| 20260507204511 | 54 | 36 | 0.0 | 1.0 | 0.00 | 0.35 | 0.35 | 88 | 1014.9 |
| 20260507204015 | 54 | 36 | 0.0 | 0.0 | 0.00 | 0.35 | 0.35 | 88 | 1014.9 |
| 20260507203511 | 54 | 36 | 0.0 | 0.0 | 0.00 | 0.35 | 0.35 | 88 | 1014.8 |
| 20260507203017 | 54 | 36 | 0.0 | 0.0 | 0.00 | 0.35 | 0.35 | 88 | 1014.7 |
| 20260507202510 | 54 | 36 | 0.0 | 0.0 | 0.00 | 0.35 | 0.35 | 88 | 1014.8 |
| 20260507202009 | 54 | 36 | 0.0 | 0.0 | 0.00 | 0.35 | 0.35 | 88 | 1014.8 |
| 20260507201514 | 54 | 36 | 0.0 | 0.0 | 0.00 | 0.35 | 0.35 | 88 | 1014.7 |
| 20260507201012 | 54 | 36 | 0.0 | 2.0 | 0.00 | 0.35 | 0.35 | 87 | 1014.7 |
| 20260507200507 | 55 | 36 | 0.0 | 2.0 | 0.00 | 0.35 | 0.35 | 87 | 1014.6 |
| 20260507200016 | 55 | 36 | 0.0 | 2.0 | 0.00 | 0.35 | 0.35 | 87 | 1014.5 |
| 20260507195505 | 55 | 36 | 0.0 | 0.0 | 0.00 | 0.35 | 0.35 | 87 | 1014.5 |
| 20260507195007 | 56 | 36 | 0.0 | 0.0 | 0.00 | 0.35 | 0.35 | 87 | 1014.4 |
| 20260507194504 | 56 | 36 | 0.0 | 0.0 | 0.00 | 0.35 | 0.35 | 86 | 1014.4 |
| 20260507194003 | 56 | 36 | 0.0 | 0.0 | 0.00 | 0.35 | 0.35 | 86 | 1014.4 |
| 20260507193505 | 56 | 36 | 0.0 | 0.0 | 0.00 | 0.35 | 0.35 | 86 | 1014.3 |
| 20260507193004 | 56 | 36 | 0.0 | 0.0 | 0.00 | 0.35 | 0.35 | 85 | 1014.3 |
| 20260507192600 | 56 | 36 | 0.0 | 0.0 | 0.00 | 0.35 | 0.35 | 85 | 1014.3 |
| 20260507192102 | 57 | 36 | 0.0 | 0.0 | 0.00 | 0.35 | 0.35 | 85 | 1014.3 |
| 20260507191601 | 57 | 36 | 0.0 | 0.0 | 0.00 | 0.35 | 0.35 | 84 | 1014.2 |
| 20260507191100 | 57 | 36 | 0.0 | 0.0 | 0.00 | 0.35 | 0.35 | 84 | 1014.1 |
| 20260507190557 | 57 | 36 | 0.0 | 0.0 | 0.00 | 0.35 | 0.35 | 83 | 1014.0 |
| 20260507190057 | 57 | 36 | 0.0 | 0.0 | 0.00 | 0.35 | 0.35 | 83 | 1014.0 |
| 20260507185555 | 57 | 36 | 0.0 | 0.0 | 0.00 | 0.35 | 0.35 | 83 | 1013.9 |
| 20260507185055 | 58 | 36 | 0.0 | 0.0 | 0.00 | 0.35 | 0.35 | 82 | 1013.7 |
| 20260507184554 | 58 | 36 | 0.0 | 0.0 | 0.00 | 0.35 | 0.35 | 82 | 1013.6 |
| 20260507184100 | 58 | 36 | 0.0 | 2.0 | 0.00 | 0.35 | 0.35 | 82 | 1013.6 |
| 20260507183554 | 58 | 36 | 0.0 | 2.0 | 0.00 | 0.35 | 0.35 | 82 | 1013.6 |
| 20260507183101 | 58 | 36 | 0.0 | 2.0 | 0.00 | 0.35 | 0.35 | 82 | 1013.5 |
| 20260507182553 | 58 | 36 | 0.0 | 2.0 | 0.00 | 0.35 | 0.35 | 82 | 1013.5 |
| 20260507182054 | 58 | 36 | 0.0 | 2.0 | 0.00 | 0.35 | 0.35 | 82 | 1013.4 |
| 20260507181552 | 58 | 36 | 1.0 | 2.0 | 0.00 | 0.35 | 0.35 | 81 | 1013.4 |
| 20260507181051 | 59 | 36 | 1.0 | 2.0 | 0.00 | 0.35 | 0.35 | 81 | 1013.4 |
| 20260507180552 | 59 | 29 | 1.0 | 2.0 | 0.00 | 0.35 | 0.35 | 81 | 1013.3 |
| 20260507180055 | 59 | 33 | 0.0 | 3.0 | 0.00 | 0.35 | 0.35 | 81 | 1013.3 |
| 20260507175559 | 59 | 34 | 1.0 | 5.0 | 0.00 | 0.35 | 0.35 | 81 | 1013.3 |
| 20260507175052 | 60 | 30 | 2.0 | 6.0 | 0.00 | 0.35 | 0.35 | 80 | 1013.1 |
| 20260507174552 | 60 | 11 | 3.0 | 6.0 | 0.00 | 0.35 | 0.35 | 81 | 1013.1 |
| 20260507174051 | 60 | 24 | 3.0 | 6.0 | 0.00 | 0.35 | 0.35 | 81 | 1013.0 |
| 20260507173550 | 60 | 34 | 3.0 | 6.0 | 0.00 | 0.35 | 0.35 | 82 | 1013.0 |
| 20260507173121 | 60 | 22 | 3.0 | 6.0 | 0.00 | 0.35 | 0.35 | 82 | 1013.1 |
| 20260507172552 | 60 | 355 | 3.0 | 6.0 | 0.00 | 0.35 | 0.35 | 82 | 1013.0 |
| 20260507172050 | 61 | 19 | 2.0 | 5.0 | 0.00 | 0.35 | 0.35 | 81 | 1013.1 |
| 20260507171550 | 61 | 22 | 3.0 | 5.0 | 0.00 | 0.35 | 0.35 | 81 | 1013.0 |
| 20260507171049 | 62 | 22 | 3.0 | 6.0 | 0.00 | 0.35 | 0.35 | 80 | 1013.0 |
| 20260507170550 | 63 | 5 | 2.0 | 4.0 | 0.00 | 0.35 | 0.35 | 81 | 1013.0 |
| 20260507170050 | 63 | 40 | 1.0 | 5.0 | 0.00 | 0.35 | 0.35 | 80 | 1013.0 |
| 20260507165547 | 63 | 23 | 2.0 | 5.0 | 0.00 | 0.36 | 0.35 | 79 | 1013.0 |
| 20260507165049 | 63 | 40 | 0.0 | 3.0 | 0.00 | 0.36 | 0.35 | 75 | 1012.9 |
| 20260507164554 | 64 | 55 | 1.0 | 4.0 | 0.00 | 0.36 | 0.35 | 74 | 1012.9 |
| 20260507164047 | 64 | 80 | 0.0 | 5.0 | 0.00 | 0.36 | 0.35 | 75 | 1012.8 |
| 20260507163546 | 64 | 55 | 2.0 | 5.0 | 0.00 | 0.36 | 0.35 | 75 | 1012.8 |
| 20260507163046 | 64 | 69 | 1.0 | 4.0 | 0.00 | 0.36 | 0.35 | 76 | 1012.8 |
| 20260507162546 | 64 | 65 | 1.0 | 5.0 | 0.00 | 0.36 | 0.35 | 77 | 1012.9 |
| 20260507162045 | 64 | 85 | 2.0 | 5.0 | 0.00 | 0.36 | 0.35 | 77 | 1012.7 |
| 20260507161552 | 64 | 74 | 1.0 | 3.0 | 0.01 | 0.36 | 0.35 | 77 | 1012.7 |
| 20260507161043 | 63 | 75 | 1.0 | 4.0 | 0.01 | 0.36 | 0.35 | 78 | 1012.6 |
| 20260507160544 | 63 | 56 | 1.0 | 4.0 | 0.02 | 0.36 | 0.35 | 80 | 1012.6 |
| 20260507160100 | 62 | 64 | 0.0 | 3.0 | 0.12 | 0.36 | 0.35 | 82 | 1012.6 |
| 20260507155542 | 62 | 59 | 1.0 | 4.0 | 0.30 | 0.55 | 0.35 | 82 | 1012.5 |
| 20260507155045 | 61 | 57 | 0.0 | 4.0 | 0.34 | 0.55 | 0.35 | 80 | 1012.6 |
| 20260507154542 | 61 | 69 | 0.0 | 5.0 | 0.35 | 0.55 | 0.35 | 80 | 1012.5 |
| 20260507154042 | 61 | 80 | 1.0 | 9.0 | 0.35 | 0.55 | 0.35 | 81 | 1012.4 |
| 20260507153542 | 60 | 54 | 3.0 | 9.0 | 0.35 | 0.55 | 0.35 | 81 | 1012.4 |